Weather History for Meadville, PA

Change the Weather History Date:

Sunday, February 3, 2013

  Actual Average Record
Temperature  
Mean Temperature 17 °F -  
Max Temperature 19 °F 34 °F 55 °F (1973)
Min Temperature 15 °F 16 °F -18 °F (1951)
Degree Days  
Heating Degree Days 48    
Moisture  
Dew Point 12 °F    
Average Humidity 78    
Maximum Humidity 93    
Minimum Humidity 62    
Precipitation  
Precipitation 0.00 in - - ()
Sea Level Pressure  
Sea Level Pressure 29.86 in    
Wind  
Wind Speed 6 mph (WSW)    
Max Wind Speed 14 mph    
Max Gust Speed 30 mph    
Visibility 6 miles    
Events Snow    
Averages and records for this station are not official NWS values.
T = Trace of Precipitation, MM = Missing Value Source: NWS Daily Summary

Daily Weather History Graph

Daily Weather History Graph

Search for Another Location

Airport:

Trip Planner

Search our weather history database for the weather conditions in past years. The results will help you decide how hot, cold, wet, or windy it might be!

Date:

Astronomy

Feb. 03, 2013 Rise Set
Actual Time 7:30 AM EST 5:39 PM EST
Civil Twilight 7:01 AM EST 6:08 PM EST
Nautical Twilight 6:28 AM EST 6:41 PM EST
Astronomical Twilight 5:55 AM EST 7:14 PM EST
Moon 12:56 AM EST (2/3) 11:15 AM EST (2/3)
Length of Visible Light 11h 07m
Length of Day
10h 09m
Waning Gibbous, 49% of the Moon is Illuminated
Feb 3
Waning Gibbous
Feb 10
New
Feb 17
First Quarter
Feb 25
Full
Mar 4
Last Quarter

Hourly Weather History & Observations

Time (EST) Temp. Windchill Dew Point Humidity Pressure Visibility Wind Dir Wind Speed Gust Speed Precip Events Conditions
12:06 AM 19.4 °F 11.5 °F 17.6 °F 93% 29.89 in 3.0 mi SW 5.8 mph - 0.00 in Snow Light Snow
12:53 AM 19.9 °F 14.9 °F 17.1 °F 89% 29.95 in 4.0 mi WSW 3.5 mph - 0.00 in Snow Light Snow
1:53 AM 19.0 °F 13.9 °F 16.0 °F 88% 29.94 in 6.0 mi NNE 3.5 mph - 0.00 in Snow Light Snow
2:22 AM 19.4 °F 12.8 °F 15.8 °F 86% 29.87 in 8.0 mi NNE 4.6 mph - 0.00 in   Overcast
2:53 AM 18.0 °F - 16.0 °F 92% 29.93 in 4.0 mi Calm Calm - 0.00 in Snow Light Snow
3:53 AM 18.0 °F - 15.1 °F 88% 29.91 in 8.0 mi Calm Calm - 0.00 in   Overcast
4:53 AM 18.0 °F - 15.1 °F 88% 29.89 in 10.0 mi Calm Calm - N/A   Overcast
5:35 AM 19.4 °F - 15.8 °F 86% 29.82 in 10.0 mi Calm Calm - N/A   Overcast
5:53 AM 19.0 °F - 15.1 °F 85% 29.88 in 10.0 mi Calm Calm - N/A   Overcast
6:53 AM 19.0 °F 12.3 °F 16.0 °F 88% 29.87 in 8.0 mi South 4.6 mph - N/A   Overcast
7:53 AM 19.0 °F 13.9 °F 16.0 °F 88% 29.87 in 4.0 mi SSW 3.5 mph - N/A   Overcast
8:40 AM 19.4 °F 12.8 °F 15.8 °F 86% 29.80 in 2.0 mi SW 4.6 mph - 0.00 in Snow Light Snow
8:53 AM 19.0 °F 12.3 °F 16.0 °F 88% 29.87 in 1.5 mi SW 4.6 mph - 0.00 in Snow Light Snow
9:36 AM 19.4 °F 10.4 °F 14.0 °F 80% 29.80 in 2.0 mi SW 6.9 mph - 0.00 in Snow Light Snow
9:38 AM 19.4 °F 10.4 °F 14.0 °F 80% 29.80 in 3.0 mi WSW 6.9 mph - 0.00 in Snow Light Snow
9:53 AM 19.0 °F 9.0 °F 10.9 °F 71% 29.86 in 10.0 mi SW 8.1 mph - 0.00 in   Overcast
10:49 AM 19.4 °F 7.2 °F 8.6 °F 63% 29.79 in 10.0 mi WSW 11.5 mph 29.9 mph N/A   Overcast
10:53 AM 19.0 °F 6.8 °F 8.1 °F 62% 29.86 in 10.0 mi WSW 11.5 mph 29.9 mph N/A   Overcast
11:05 AM 19.4 °F 8.6 °F 8.6 °F 63% 29.80 in 10.0 mi WSW 9.2 mph - N/A   Overcast
11:53 AM 18.0 °F 6.1 °F 9.0 °F 68% 29.86 in 8.0 mi WSW 10.4 mph - 0.00 in Snow Light Snow
12:29 PM 17.6 °F 5.7 °F 10.4 °F 73% 29.78 in 1.8 mi WSW 10.4 mph - 0.00 in Snow Light Snow
12:53 PM 19.0 °F 7.5 °F 10.9 °F 71% 29.84 in 2.5 mi West 10.4 mph - 0.00 in Snow Light Snow
1:00 PM 19.4 °F 8.6 °F 10.4 °F 68% 29.77 in 7.0 mi WSW 9.2 mph - 0.00 in Snow Light Snow
1:48 PM 19.4 °F 8.6 °F 10.4 °F 68% 29.77 in 9.0 mi West 9.2 mph - 0.00 in   Overcast
1:53 PM 19.0 °F 5.6 °F 10.9 °F 71% 29.83 in 6.0 mi West 13.8 mph 20.7 mph 0.00 in Snow Light Snow
2:07 PM 17.6 °F 5.0 °F 10.4 °F 73% 29.77 in 1.8 mi West 11.5 mph 20.7 mph 0.00 in Snow Light Snow
2:29 PM 17.6 °F 5.0 °F 12.2 °F 79% 29.77 in 0.8 mi West 11.5 mph - 0.00 in Snow Light Snow
2:39 PM 17.6 °F 5.0 °F 12.2 °F 79% 29.78 in 1.5 mi West 11.5 mph - 0.00 in Snow Light Snow
2:50 PM 17.6 °F 4.3 °F 10.4 °F 73% 29.78 in 3.0 mi West 12.7 mph - 0.00 in Snow Light Snow
3:53 PM 18.0 °F 8.7 °F 8.1 °F 65% 29.85 in 10.0 mi West 6.9 mph - 0.00 in   Overcast
4:53 PM 17.1 °F 7.6 °F 9.0 °F 71% 29.87 in 10.0 mi West 6.9 mph - N/A   Overcast
5:53 PM 16.0 °F 2.9 °F 8.1 °F 71% 29.89 in 10.0 mi West 11.5 mph - N/A   Overcast
6:53 PM 16.0 °F 5.3 °F 9.0 °F 74% 29.91 in 7.0 mi WSW 8.1 mph - 0.00 in Snow Light Snow
7:53 PM 16.0 °F 6.3 °F 10.0 °F 77% 29.93 in 4.0 mi SW 6.9 mph - 0.00 in Snow Light Snow
8:53 PM 16.0 °F 3.6 °F 10.9 °F 81% 29.94 in 6.0 mi WSW 10.4 mph - 0.00 in Snow Light Snow
9:53 PM 16.0 °F 5.3 °F 10.9 °F 81% 29.95 in 4.0 mi WSW 8.1 mph 16.1 mph 0.00 in Snow Light Snow
10:08 PM 15.8 °F 2.1 °F 10.4 °F 79% 29.88 in 4.0 mi WSW 12.7 mph 20.7 mph 0.00 in Snow Light Snow
10:53 PM 16.0 °F 3.6 °F 10.9 °F 81% 29.95 in 3.0 mi SW 10.4 mph 18.4 mph 0.00 in Snow Light Snow
11:17 PM 15.8 °F 4.2 °F 10.4 °F 79% 29.89 in 6.0 mi WSW 9.2 mph 18.4 mph 0.00 in Snow Light Snow
11:37 PM 15.8 °F 2.1 °F 10.4 °F 79% 29.89 in 2.5 mi SW 12.7 mph 19.6 mph 0.00 in Snow Light Snow
11:53 PM 16.0 °F 2.3 °F 10.9 °F 81% 29.96 in 1.8 mi WSW 12.7 mph 18.4 mph 0.00 in Snow Light Snow